User: anonymous   Login
Location: Kopernik Observatory
(42.0014°N, 76.0372°W)
Time: 17:03:09
(UTC-05:00)
Language:

CENTAUR R/B - Orbit

View from above orbital plane
View from above orbital plane
View from above satellite
View from above satellite

Ground track
Ground track

The orbit data is extracted from the following two-line orbital elements,

1 26906U 01040B   18049.81402366 0.00000040  00000-0  45619-4 0    06
2 26906  63.4560  61.0676 0371000 340.8854  19.1146 13.44023525    09
Epoch (UTC): 18 February 2018 19:32:11
Eccentricity: 0.0371000
inclination: 63.4560°
perigee height: 817 km
apogee height: 1371 km
right ascension of ascending node: 61.0676°
argument of perigee: 340.8854°
revolutions per day: 13.44023525
mean anomaly at epoch: 19.1146°
orbit number at epoch: 0

The dashed part of the orbit path shows where the satellite is in the earth's shadow,  

DLR